• In Belarus
  • List of Countries
  • For 7 days
  • Water Temperature
  • Satellite Maps
  • Weather Map
  • Weather Widgets
  • user-avatar
    Login

    Hourly Weather Klagenfurt

    Today, 23 November, Thursday

    Time Temperature Precipitation Wind Pressure Humidity
    00:00 +4°C° 0 mm 1 mps 689 mmHg 94%
    01:00 +4°C° 0 mm 1 mps 689 mmHg 94%
    02:00 +4°C° 0 mm 1 mps 689 mmHg 94%
    03:00 +4°C° 0 mm 1 mps 688 mmHg 94%
    04:00 +4°C° 0 mm 1 mps 688 mmHg 94%
    05:00 +4°C° 0 mm 1 mps 688 mmHg 93%
    06:00 +4°C° 0 mm 1 mps 688 mmHg 93%
    07:00 +3°C° 0 mm 1 mps 688 mmHg 94%
    08:00 +5°C° 0 mm 1 mps 688 mmHg 90%
    09:00 +5°C° 0 mm 2 mps 689 mmHg 86%
    10:00 +7°C° 0 mm 2 mps 689 mmHg 82%
    11:00 +7°C° 0 mm 2 mps 689 mmHg 79%
    12:00 +8°C° 0 mm 2 mps 689 mmHg 77%
    13:00 +9°C° 0 mm 3 mps 689 mmHg 75%
    14:00 +8°C° 0 mm 2 mps 689 mmHg 79%
    15:00 +7°C° 0 mm 2 mps 689 mmHg 83%
    16:00 +6°C° 0 mm 2 mps 689 mmHg 87%
    17:00 +5°C° 0 mm 2 mps 689 mmHg 89%
    18:00 +6°C° 0 mm 1 mps 689 mmHg 91%
    19:00 +5°C° 0 mm 1 mps 690 mmHg 93%
    20:00 +5°C° 0 mm 1 mps 690 mmHg 93%
    21:00 +4°C° 0 mm 1 mps 690 mmHg 92%
    22:00 +4°C° 0 mm 1 mps 691 mmHg 92%
    23:00 +4°C° 0 mm 1 mps 691 mmHg 91%

    Tomorrow, 24 November, Friday

    Time Temperature Precipitation Wind Pressure Humidity
    00:00 +4°C° 0 mm 1 mps 691 mmHg 91%
    01:00 +4°C° 0 mm 1 mps 691 mmHg 91%
    02:00 +4°C° 0 mm 1 mps 691 mmHg 90%
    03:00 +3°C° 0 mm 1 mps 691 mmHg 89%
    04:00 +3°C° 0 mm 1 mps 691 mmHg 89%
    05:00 +3°C° 0 mm 1 mps 691 mmHg 88%
    06:00 +3°C° 0 mm 1 mps 691 mmHg 88%
    07:00 +3°C° 0 mm 1 mps 691 mmHg 87%
    08:00 +5°C° 0 mm 1 mps 691 mmHg 82%
    09:00 +6°C° 0 mm 1 mps 691 mmHg 78%
    10:00 +8°C° 0 mm 1 mps 691 mmHg 73%
    11:00 +9°C° 0 mm 1 mps 691 mmHg 71%
    12:00 +10°C° 0 mm 1 mps 691 mmHg 69%
    13:00 +11°C° 0 mm 1 mps 691 mmHg 67%
    14:00 +9°C° 0 mm 1 mps 690 mmHg 73%
    15:00 +8°C° 0 mm 1 mps 690 mmHg 80%
    16:00 +7°C° 0 mm 1 mps 690 mmHg 86%
    17:00 +6°C° 0 mm 1 mps 690 mmHg 89%
    18:00 +5°C° 0 mm 1 mps 690 mmHg 91%
    19:00 +4°C° 0 mm 1 mps 690 mmHg 93%
    20:00 +4°C° 0 mm 1 mps 690 mmHg 93%
    21:00 +4°C° 0 mm 1 mps 690 mmHg 93%
    22:00 +4°C° 0 mm 1 mps 690 mmHg 93%
    23:00 +4°C° 0 mm 1 mps 690 mmHg 92%

    Day after tomorrow, 25 November, Saturday

    Time Temperature Precipitation Wind Pressure Humidity
    00:00 +4°C° 0 mm 1 mps 690 mmHg 92%
    01:00 +4°C° 0 mm 1 mps 690 mmHg 92%
    02:00 +4°C° 0 mm 1 mps 689 mmHg 92%
    03:00 +4°C° 0 mm 1 mps 689 mmHg 93%
    04:00 +5°C° 0 mm 1 mps 688 mmHg 93%
    05:00 +5°C° 0.1 mm 1 mps 688 mmHg 93%
    06:00 +5°C° 0.1 mm 1 mps 688 mmHg 94%
    07:00 +5°C° 0.1 mm 1 mps 687 mmHg 95%
    08:00 +5°C° 0.2 mm 2 mps 687 mmHg 94%
    09:00 +6°C° 0.2 mm 2 mps 687 mmHg 92%
    10:00 +6°C° 0.2 mm 2 mps 687 mmHg 91%
    11:00 +7°C° 0.2 mm 2 mps 686 mmHg 90%
    12:00 +7°C° 0.2 mm 3 mps 685 mmHg 89%
    13:00 +8°C° 0.2 mm 3 mps 685 mmHg 88%
    14:00 +7°C° 0.5 mm 3 mps 684 mmHg 90%
    15:00 +7°C° 0.5 mm 2 mps 684 mmHg 92%
    16:00 +7°C° 0.5 mm 2 mps 684 mmHg 93%
    17:00 +7°C° 1.2 mm 2 mps 684 mmHg 94%
    18:00 +7°C° 1.2 mm 2 mps 684 mmHg 94%
    19:00 +7°C° 1.2 mm 2 mps 684 mmHg 95%
    20:00 +7°C° 2.1 mm 2 mps 684 mmHg 95%
    21:00 +7°C° 2.1 mm 2 mps 684 mmHg 95%
    22:00 +7°C° 2.1 mm 2 mps 685 mmHg 94%
    23:00 +6°C° 3.6 mm 2 mps 685 mmHg 93%

    26 November, Sunday

    Time Temperature Precipitation Wind Pressure Humidity
    00:00 +5°C° 3.6 mm 2 mps 685 mmHg 92%
    01:00 +4°C° 3.6 mm 2 mps 685 mmHg 90%
    02:00 +3°C° 2.3 mm 2 mps 685 mmHg 90%
    03:00 +2°C° 2.3 mm 2 mps 686 mmHg 91%
    04:00 +2°C° 2.3 mm 2 mps 686 mmHg 91%
    05:00 +1°C° 1.9 mm 2 mps 686 mmHg 91%
    06:00 -1°C° 1.9 mm 2 mps 687 mmHg 91%
    07:00 -1°C° 1.9 mm 2 mps 687 mmHg 90%
    08:00 -1°C° 1 mm 2 mps 688 mmHg 89%
    09:00 -1°C° 1 mm 2 mps 689 mmHg 88%
    10:00 -2°C° 1 mm 2 mps 690 mmHg 87%
    11:00 -2°C° 0.4 mm 2 mps 690 mmHg 85%
    12:00 -2°C° 0.4 mm 2 mps 690 mmHg 84%
    13:00 -2°C° 0.4 mm 2 mps 690 mmHg 82%
    14:00 -2°C° 0.1 mm 2 mps 691 mmHg 82%
    15:00 -2°C° 0.1 mm 2 mps 691 mmHg 83%
    16:00 -1°C° 0.1 mm 1 mps 691 mmHg 83%
    17:00 -2°C° 0 mm 1 mps 691 mmHg 84%
    18:00 -3°C° 0 mm 1 mps 692 mmHg 85%
    19:00 -3°C° 0 mm 1 mps 692 mmHg 86%
    20:00 -4°C° 0 mm 1 mps 692 mmHg 86%
    21:00 -6°C° 0 mm 1 mps 692 mmHg 85%
    22:00 -7°C° 0 mm 1 mps 692 mmHg 85%
    23:00 -7°C° 0 mm 1 mps 692 mmHg 84%

    27 November, Monday

    Time Temperature Precipitation Wind Pressure Humidity
    00:00 -7°C° 0 mm 1 mps 692 mmHg 84%
    01:00 -7°C° 0 mm 1 mps 692 mmHg 83%
    02:00 -7°C° 0 mm 1 mps 692 mmHg 83%
    03:00 -7°C° 0 mm 1 mps 692 mmHg 82%
    04:00 -7°C° 0 mm 1 mps 692 mmHg 82%
    05:00 -7°C° 0 mm 1 mps 692 mmHg 81%
    06:00 -7°C° 0 mm 1 mps 692 mmHg 81%
    07:00 -7°C° 0 mm 1 mps 693 mmHg 81%
    08:00 -4°C° 0 mm 1 mps 693 mmHg 77%
    09:00 -2°C° 0 mm 1 mps 693 mmHg 74%
    10:00 -1°C° 0 mm 0 mps 694 mmHg 71%
    11:00 0°C° 0 mm 0 mps 693 mmHg 68%
    12:00 +1°C° 0 mm 0 mps 693 mmHg 66%
    13:00 +1°C° 0 mm 0 mps 693 mmHg 64%
    14:00 0°C° 0 mm 0 mps 693 mmHg 68%
    15:00 -1°C° 0 mm 0 mps 692 mmHg 73%
    16:00 -2°C° 0 mm 0 mps 692 mmHg 78%
    17:00 -3°C° 0 mm 0 mps 692 mmHg 80%
    18:00 -4°C° 0 mm 0 mps 692 mmHg 82%
    19:00 -5°C° 0 mm 0 mps 692 mmHg 84%
    20:00 -5°C° 0 mm 0 mps 692 mmHg 84%
    21:00 -5°C° 0 mm 0 mps 691 mmHg 84%
    22:00 -5°C° 0 mm 0 mps 691 mmHg 84%
    23:00 -6°C° 0 mm 0 mps 691 mmHg 84%

    28 November, Tuesday

    Time Temperature Precipitation Wind Pressure Humidity
    00:00 -6°C° 0 mm 0 mps 690 mmHg 84%
    01:00 -6°C° 0 mm 1 mps 690 mmHg 84%
    02:00 -6°C° 0 mm 1 mps 690 mmHg 84%
    03:00 -6°C° 0 mm 1 mps 689 mmHg 84%
    04:00 -6°C° 0 mm 1 mps 689 mmHg 83%
    05:00 -6°C° 0 mm 1 mps 689 mmHg 83%
    06:00 -6°C° 0 mm 1 mps 688 mmHg 83%
    07:00 -6°C° 0 mm 1 mps 688 mmHg 82%
    08:00 -3°C° 0 mm 1 mps 688 mmHg 79%
    09:00 -2°C° 0 mm 1 mps 688 mmHg 76%
    10:00 0°C° 0 mm 1 mps 688 mmHg 72%
    11:00 +1°C° 0 mm 1 mps 688 mmHg 72%
    12:00 +1°C° 0 mm 1 mps 687 mmHg 72%
    13:00 +1°C° 0 mm 2 mps 687 mmHg 72%
    14:00 +1°C° 0 mm 1 mps 687 mmHg 77%
    15:00 +1°C° 0 mm 1 mps 686 mmHg 82%
    16:00 0°C° 0 mm 1 mps 686 mmHg 87%
    17:00 -1°C° 0 mm 1 mps 686 mmHg 89%
    18:00 -2°C° 0 mm 1 mps 686 mmHg 91%
    19:00 -3°C° 0 mm 1 mps 685 mmHg 92%
    20:00 -2°C° 0 mm 1 mps 685 mmHg 92%
    21:00 -2°C° 0 mm 1 mps 685 mmHg 92%
    22:00 -2°C° 0 mm 1 mps 685 mmHg 92%
    23:00 -2°C° 0 mm 1 mps 685 mmHg 92%
    Show more